DMSP 5D-2 F11 DEB, 28309

Orbit data source: Space-Track

DMSP 5D-2 F11 DEB, 28309 is space debris in SSO originally from a launch on Thu, 28 Nov 1991 UTC launched from the Air Force Western Test Range (AFWTR). Debris objects in space refer to the collection of defunct objects orbiting the Earth. Examples of debris include non-operational satellites, rocket bodies, and fragments generated from explosions, collisions, or faulty payload assembly.

Loading next visibility...
Identifier
28309, 1991-082W
Orbit
SSO
Country
Flag of USUS
Related business
Manufacturer
Unknown
Mission
Spacecraft
Bus & Motor
Unknown
Mass
Unknown
Launch date (UTC)
1991-11-28 (34 years ago)
Launch vehicle
Unknown
Launch site
Air Force Western Test Range (AFWTR)
Object type
Payload
Rocket body
Debris
Shape & HBR
Unknown shape, 0.2 m
Radar Cross Section
Small (<0.1 m²)

Expand to show TLE details & history
Last TLE update: 1 day ago

TLE from 1 day ago
0 DMSP 5D-2 F11 DEB
1 28309U 91082W   26134.35029955  .00000070  00000-0  51089-4 0  9990
2 28309  98.7074 157.0078 0014513 352.1722  24.1244 14.22667488144737
Epoch: 2026-05-14T08:24Z
TLE epoch observation values (Epoch: 2026-05-14T08:24:25.881Z)
Latitude
16.15304°
Longitude
156.2738°
Altitude
809.075 km
Speed
7.455 km/s
True Right ascension
10h 17m 54s
True Declination
16° 03' 43"
Sunlit
Object was in daylight at epoch
Visualization orbit readout
Latitude
Unknown
Longitude
Unknown
Altitude
Unknown
Speed
Unknown
Apparent Right ascension
Unknown
Apparent Declination
Unknown
Sunlit
N/A
Visualization observer readout
Local Sidereal Time
19:06:22
Azimuth
Unknown
Elevation
Unknown
Doppler factor
Unknown
Orbital elements
Apogee altitude
823.938 km
Perigee altitude
803.063 km
Semi-major axis
7,191.638 km
Eccentricity
0.00145
Inclination
98.7074°
RAAN
157.0078°
Arg. of periapsis
352.1722°
True anomaly
24.19249°
Mean anomaly
24.1244°
Eccentric anomaly
24.15843°
Mean motion
3.55878 °/min
Orbital period
101.16 mins
BSTAR
0.000051089
Loading maneuver chart data...
Computing Atmospheric mass density...

Documentation

Showing up to 5 results
|